owner,sensor,date,latitude,longitude,vertical_datum,wind_speed,wind_to_direction,wind_speed_of_gust,qcFlag 
NDBC,ioos:station:wmo:42019:1,2017-11-01T00:50:00Z,27.9070,-95.3530,5.0,9.0,120.0,11.0,'1111122,1111122,1111122' 
NDBC,ioos:station:wmo:42019:1,2017-11-01T01:50:00Z,27.9070,-95.3530,5.0,10.0,130.0,11.0,'1111122,1111122,1111122' 
NDBC,ioos:station:wmo:42019:1,2017-11-01T02:50:00Z,27.9070,-95.3530,5.0,10.0,130.0,11.0,'1111122,1111122,1111122' 
NDBC,ioos:station:wmo:42019:1,2017-11-01T03:50:00Z,27.9070,-95.3530,5.0,9.0,120.0,11.0,'1111122,1111122,1111122' 
NDBC,ioos:station:wmo:42019:1,2017-11-01T04:50:00Z,27.9070,-95.3530,5.0,9.0,140.0,11.0,'1111122,1111122,1111122' 
NDBC,ioos:station:wmo:42019:1,2017-11-01T05:50:00Z,27.9070,-95.3530,5.0,9.0,130.0,11.0,'1111122,1111122,1111122' 
NDBC,ioos:station:wmo:42019:1,2017-11-01T06:50:00Z,27.9070,-95.3530,5.0,10.0,150.0,12.0,'1111122,1111122,1111122' 
NDBC,ioos:station:wmo:42019:1,2017-11-01T07:50:00Z,27.9070,-95.3530,5.0,11.0,150.0,14.0,'1111122,1111122,1111122' 
NDBC,ioos:station:wmo:42019:1,2017-11-01T08:50:00Z,27.9070,-95.3530,5.0,12.0,150.0,13.0,'1111122,1111122,1111122' 
NDBC,ioos:station:wmo:42019:1,2017-11-01T09:50:00Z,27.9070,-95.3530,5.0,11.0,160.0,13.0,'1111122,1111122,1111122' 
NDBC,ioos:station:wmo:42019:1,2017-11-01T10:50:00Z,27.9070,-95.3530,5.0,11.0,160.0,13.0,'1111122,1111122,1111122' 
NDBC,ioos:station:wmo:42019:1,2017-11-01T11:50:00Z,27.9070,-95.3530,5.0,11.0,170.0,14.0,'1111122,1111122,1111122' 
NDBC,ioos:station:wmo:42019:1,2017-11-01T12:50:00Z,27.9070,-95.3530,5.0,10.0,180.0,12.0,'1111122,1111122,1111122' 
NDBC,ioos:station:wmo:42019:1,2017-11-01T13:50:00Z,27.9070,-95.3530,5.0,9.0,170.0,11.0,'1111122,1111122,1111122' 
NDBC,ioos:station:wmo:42019:1,2017-11-01T14:50:00Z,27.9070,-95.3530,5.0,10.0,170.0,12.0,'1111122,1111122,1111122' 
NDBC,ioos:station:wmo:42019:1,2017-11-01T15:50:00Z,27.9070,-95.3530,5.0,10.0,180.0,12.0,'1111122,1111122,1111122' 
NDBC,ioos:station:wmo:42019:1,2017-11-01T16:50:00Z,27.9070,-95.3530,5.0,10.0,180.0,12.0,'1111122,1111122,1111122' 
NDBC,ioos:station:wmo:42019:1,2017-11-01T17:50:00Z,27.9070,-95.3530,5.0,10.0,190.0,12.0,'1111122,1111122,1111122' 
NDBC,ioos:station:wmo:42019:1,2017-11-01T18:50:00Z,27.9070,-95.3530,5.0,9.0,180.0,10.0,'1111122,1111122,1111122' 
NDBC,ioos:station:wmo:42019:1,2017-11-01T19:50:00Z,27.9070,-95.3530,5.0,9.0,180.0,10.0,'1111122,1111122,1111122' 
NDBC,ioos:station:wmo:42019:1,2017-11-01T20:50:00Z,27.9070,-95.3530,5.0,7.0,180.0,9.0,'1111122,1111122,1111122' 
NDBC,ioos:station:wmo:42019:1,2017-11-01T21:50:00Z,27.9070,-95.3530,5.0,7.0,190.0,8.0,'1111122,1111122,1111122' 
NDBC,ioos:station:wmo:42019:1,2017-11-01T22:50:00Z,27.9070,-95.3530,5.0,8.0,180.0,9.0,'1111122,1111122,1111122' 
NDBC,ioos:station:wmo:42019:1,2017-11-01T23:50:00Z,27.9070,-95.3530,5.0,8.0,180.0,9.0,'1111122,1111122,1111122' 
NDBC,ioos:station:wmo:42019:1,2017-11-02T00:50:00Z,27.9070,-95.3530,5.0,9.0,180.0,10.0,'1111122,1111122,1111122' 
NDBC,ioos:station:wmo:42019:1,2017-11-02T01:50:00Z,27.9070,-95.3530,5.0,9.0,170.0,11.0,'1111122,1111122,1111122' 
NDBC,ioos:station:wmo:42019:1,2017-11-02T02:50:00Z,27.9070,-95.3530,5.0,10.0,170.0,11.0,'1111122,1111122,1111122' 
NDBC,ioos:station:wmo:42019:1,2017-11-02T03:50:00Z,27.9070,-95.3530,5.0,10.0,170.0,11.0,'1111122,1111122,1111122' 
NDBC,ioos:station:wmo:42019:1,2017-11-02T04:50:00Z,27.9070,-95.3530,5.0,10.0,170.0,12.0,'1111122,1111122,1111122' 
NDBC,ioos:station:wmo:42019:1,2017-11-02T05:50:00Z,27.9070,-95.3530,5.0,10.0,170.0,12.0,'1111122,1111122,1111122' 
NDBC,ioos:station:wmo:42019:1,2017-11-02T06:50:00Z,27.9070,-95.3530,5.0,10.0,170.0,12.0,'1111122,1111122,1111122' 
NDBC,ioos:station:wmo:42019:1,2017-11-02T07:50:00Z,27.9070,-95.3530,5.0,11.0,170.0,13.0,'1111122,1111122,1111122' 
NDBC,ioos:station:wmo:42019:1,2017-11-02T08:50:00Z,27.9070,-95.3530,5.0,10.0,170.0,12.0,'1111122,1111122,1111122' 
NDBC,ioos:station:wmo:42019:1,2017-11-02T09:50:00Z,27.9070,-95.3530,5.0,8.0,160.0,10.0,'1111122,1111122,1111122' 
NDBC,ioos:station:wmo:42019:1,2017-11-02T10:50:00Z,27.9070,-95.3530,5.0,8.0,160.0,10.0,'1111122,1111122,1111122' 
NDBC,ioos:station:wmo:42019:1,2017-11-02T11:50:00Z,27.9070,-95.3530,5.0,8.0,160.0,10.0,'1111122,1111122,1111122' 
NDBC,ioos:station:wmo:42019:1,2017-11-02T12:50:00Z,27.9070,-95.3530,5.0,8.0,160.0,10.0,'1111122,1111122,1111122' 
NDBC,ioos:station:wmo:42019:1,2017-11-02T13:50:00Z,27.9070,-95.3530,5.0,7.0,160.0,9.0,'1111122,1111122,1111122' 
NDBC,ioos:station:wmo:42019:1,2017-11-02T14:50:00Z,27.9070,-95.3530,5.0,6.0,160.0,7.0,'1111122,1111122,1111122' 
NDBC,ioos:station:wmo:42019:1,2017-11-02T15:50:00Z,27.9070,-95.3530,5.0,8.0,160.0,10.0,'1111122,1111122,1111122' 
NDBC,ioos:station:wmo:42019:1,2017-11-02T16:50:00Z,27.9070,-95.3530,5.0,7.0,150.0,8.0,'1111122,1111122,1111122' 
NDBC,ioos:station:wmo:42019:1,2017-11-02T17:50:00Z,27.9070,-95.3530,5.0,7.0,140.0,8.0,'1111122,1111122,1111122' 
NDBC,ioos:station:wmo:42019:1,2017-11-02T18:50:00Z,27.9070,-95.3530,5.0,6.0,160.0,7.0,'1111122,1111122,1111122' 
NDBC,ioos:station:wmo:42019:1,2017-11-02T19:50:00Z,27.9070,-95.3530,5.0,7.0,170.0,8.0,'1111122,1111122,1111122' 
NDBC,ioos:station:wmo:42019:1,2017-11-02T20:50:00Z,27.9070,-95.3530,5.0,7.0,170.0,9.0,'1111122,1111122,1111122' 
NDBC,ioos:station:wmo:42019:1,2017-11-02T21:50:00Z,27.9070,-95.3530,5.0,8.0,160.0,9.0,'1111122,1111122,1111122' 
NDBC,ioos:station:wmo:42019:1,2017-11-02T22:50:00Z,27.9070,-95.3530,5.0,7.0,150.0,9.0,'1111122,1111122,1111122' 
NDBC,ioos:station:wmo:42019:1,2017-11-02T23:50:00Z,27.9070,-95.3530,5.0,8.0,150.0,9.0,'1111122,1111122,1111122' 
NDBC,ioos:station:wmo:42019:1,2017-11-03T00:50:00Z,27.9070,-95.3530,5.0,7.0,150.0,9.0,'1111122,1111122,1111122' 
NDBC,ioos:station:wmo:42019:1,2017-11-03T01:50:00Z,27.9070,-95.3530,5.0,8.0,140.0,9.0,'1111122,1111122,1111122' 
NDBC,ioos:station:wmo:42019:1,2017-11-03T02:50:00Z,27.9070,-95.3530,5.0,7.0,150.0,8.0,'1111122,1111122,1111122' 
NDBC,ioos:station:wmo:42019:1,2017-11-03T03:50:00Z,27.9070,-95.3530,5.0,7.0,150.0,8.0,'1111122,1111122,1111122' 
NDBC,ioos:station:wmo:42019:1,2017-11-03T04:50:00Z,27.9070,-95.3530,5.0,8.0,150.0,9.0,'1111122,1111122,1111122' 
NDBC,ioos:station:wmo:42019:1,2017-11-03T05:50:00Z,27.9070,-95.3530,5.0,8.0,160.0,9.0,'1111122,1111122,1111122' 
NDBC,ioos:station:wmo:42019:1,2017-11-03T06:50:00Z,27.9070,-95.3530,5.0,8.0,160.0,10.0,'1111122,1111122,1111122' 
NDBC,ioos:station:wmo:42019:1,2017-11-03T07:50:00Z,27.9070,-95.3530,5.0,8.0,170.0,9.0,'1111122,1111122,1111122' 
NDBC,ioos:station:wmo:42019:1,2017-11-03T08:50:00Z,27.9070,-95.3530,5.0,7.0,170.0,9.0,'1111122,1111122,1111122' 
NDBC,ioos:station:wmo:42019:1,2017-11-03T09:50:00Z,27.9070,-95.3530,5.0,5.0,160.0,6.0,'1111122,1111122,1111122' 
NDBC,ioos:station:wmo:42019:1,2017-11-03T10:50:00Z,27.9070,-95.3530,5.0,4.0,150.0,5.0,'1111122,1111122,1111122' 
NDBC,ioos:station:wmo:42019:1,2017-11-03T11:50:00Z,27.9070,-95.3530,5.0,5.0,150.0,5.0,'1111122,1111122,1111122' 
NDBC,ioos:station:wmo:42019:1,2017-11-03T12:50:00Z,27.9070,-95.3530,5.0,6.0,150.0,7.0,'1111122,1111122,1111122' 
NDBC,ioos:station:wmo:42019:1,2017-11-03T13:50:00Z,27.9070,-95.3530,5.0,6.0,140.0,7.0,'1111122,1111122,1111122' 
NDBC,ioos:station:wmo:42019:1,2017-11-03T14:50:00Z,27.9070,-95.3530,5.0,6.0,150.0,7.0,'1111122,1111122,1111122' 
NDBC,ioos:station:wmo:42019:1,2017-11-03T15:50:00Z,27.9070,-95.3530,5.0,6.0,150.0,7.0,'1111122,1111122,1111122' 
NDBC,ioos:station:wmo:42019:1,2017-11-03T16:50:00Z,27.9070,-95.3530,5.0,6.0,150.0,7.0,'1111122,1111122,1111122' 
NDBC,ioos:station:wmo:42019:1,2017-11-03T17:50:00Z,27.9070,-95.3530,5.0,5.0,150.0,6.0,'1111122,1111122,1111122' 
NDBC,ioos:station:wmo:42019:1,2017-11-03T18:50:00Z,27.9070,-95.3530,5.0,5.0,150.0,6.0,'1111122,1111122,1111122' 
NDBC,ioos:station:wmo:42019:1,2017-11-03T19:50:00Z,27.9070,-95.3530,5.0,5.0,140.0,6.0,'1111122,1111122,1111122' 
NDBC,ioos:station:wmo:42019:1,2017-11-03T20:50:00Z,27.9070,-95.3530,5.0,5.0,140.0,6.0,'1111122,1111122,1111122' 
NDBC,ioos:station:wmo:42019:1,2017-11-03T21:50:00Z,27.9070,-95.3530,5.0,6.0,140.0,7.0,'1111122,1111122,1111122' 
NDBC,ioos:station:wmo:42019:1,2017-11-03T22:50:00Z,27.9070,-95.3530,5.0,5.0,140.0,6.0,'1111122,1111122,1111122' 
NDBC,ioos:station:wmo:42019:1,2017-11-03T23:50:00Z,27.9070,-95.3530,5.0,5.0,150.0,6.0,'1111122,1111122,1111122' 
NDBC,ioos:station:wmo:42019:1,2017-11-04T00:50:00Z,27.9070,-95.3530,5.0,5.0,140.0,5.0,'1111122,1111122,1111122' 
NDBC,ioos:station:wmo:42019:1,2017-11-04T01:50:00Z,27.9070,-95.3530,5.0,4.0,140.0,5.0,'1111122,1111122,1111122' 
NDBC,ioos:station:wmo:42019:1,2017-11-04T02:50:00Z,27.9070,-95.3530,5.0,6.0,150.0,6.0,'1111122,1111122,1111122' 
NDBC,ioos:station:wmo:42019:1,2017-11-04T03:50:00Z,27.9070,-95.3530,5.0,6.0,160.0,7.0,'1111122,1111122,1111122' 
NDBC,ioos:station:wmo:42019:1,2017-11-04T04:50:00Z,27.9070,-95.3530,5.0,7.0,150.0,9.0,'1111122,1111122,1111122' 
NDBC,ioos:station:wmo:42019:1,2017-11-04T05:50:00Z,27.9070,-95.3530,5.0,7.0,150.0,9.0,'1111122,1111122,1111122' 
NDBC,ioos:station:wmo:42019:1,2017-11-04T06:50:00Z,27.9070,-95.3530,5.0,7.0,150.0,9.0,'1111122,1111122,1111122' 
NDBC,ioos:station:wmo:42019:1,2017-11-04T07:50:00Z,27.9070,-95.3530,5.0,7.0,160.0,8.0,'1111122,1111122,1111122' 
NDBC,ioos:station:wmo:42019:1,2017-11-04T08:50:00Z,27.9070,-95.3530,5.0,7.0,160.0,8.0,'1111122,1111122,1111122' 
NDBC,ioos:station:wmo:42019:1,2017-11-04T09:50:00Z,27.9070,-95.3530,5.0,7.0,170.0,8.0,'1111122,1111122,1111122' 
NDBC,ioos:station:wmo:42019:1,2017-11-04T10:50:00Z,27.9070,-95.3530,5.0,7.0,170.0,8.0,'1111122,1111122,1111122' 
NDBC,ioos:station:wmo:42019:1,2017-11-04T11:50:00Z,27.9070,-95.3530,5.0,6.0,180.0,6.0,'1111122,1111122,1111122' 
NDBC,ioos:station:wmo:42019:1,2017-11-04T12:50:00Z,27.9070,-95.3530,5.0,5.0,170.0,6.0,'1111122,1111122,1111122' 
NDBC,ioos:station:wmo:42019:1,2017-11-04T13:50:00Z,27.9070,-95.3530,5.0,5.0,170.0,5.0,'1111122,1111122,1111122' 
NDBC,ioos:station:wmo:42019:1,2017-11-04T14:50:00Z,27.9070,-95.3530,5.0,5.0,150.0,6.0,'1111122,1111122,1111122' 
NDBC,ioos:station:wmo:42019:1,2017-11-04T15:50:00Z,27.9070,-95.3530,5.0,5.0,150.0,6.0,'1111122,1111122,1111122' 
NDBC,ioos:station:wmo:42019:1,2017-11-04T16:50:00Z,27.9070,-95.3530,5.0,5.0,160.0,6.0,'1111122,1111122,1111122' 
NDBC,ioos:station:wmo:42019:1,2017-11-04T17:50:00Z,27.9070,-95.3530,5.0,7.0,170.0,7.0,'1111122,1111122,1111122' 
NDBC,ioos:station:wmo:42019:1,2017-11-04T18:50:00Z,27.9070,-95.3530,5.0,6.0,170.0,7.0,'1111122,1111122,1111122' 
NDBC,ioos:station:wmo:42019:1,2017-11-04T19:50:00Z,27.9070,-95.3530,5.0,5.0,170.0,6.0,'1111122,1111122,1111122' 
NDBC,ioos:station:wmo:42019:1,2017-11-04T20:50:00Z,27.9070,-95.3530,5.0,5.0,170.0,5.0,'1111122,1111122,1111122' 
NDBC,ioos:station:wmo:42019:1,2017-11-04T21:50:00Z,27.9070,-95.3530,5.0,4.0,160.0,5.0,'1111122,1111122,1111122' 
NDBC,ioos:station:wmo:42019:1,2017-11-04T22:50:00Z,27.9070,-95.3530,5.0,5.0,150.0,6.0,'1111122,1111122,1111122' 
NDBC,ioos:station:wmo:42019:1,2017-11-04T23:50:00Z,27.9070,-95.3530,5.0,6.0,150.0,7.0,'1111122,1111122,1111122' 
NDBC,ioos:station:wmo:42019:1,2017-11-05T00:50:00Z,27.9070,-95.3530,5.0,6.0,140.0,7.0,'1111122,1111122,1111122' 
NDBC,ioos:station:wmo:42019:1,2017-11-05T01:50:00Z,27.9070,-95.3530,5.0,6.0,150.0,7.0,'1111122,1111122,1111122' 
NDBC,ioos:station:wmo:42019:1,2017-11-05T02:50:00Z,27.9070,-95.3530,5.0,7.0,140.0,9.0,'1111122,1111122,1111122' 
NDBC,ioos:station:wmo:42019:1,2017-11-05T03:50:00Z,27.9070,-95.3530,5.0,8.0,140.0,9.0,'1111122,1111122,1111122' 
NDBC,ioos:station:wmo:42019:1,2017-11-05T04:50:00Z,27.9070,-95.3530,5.0,8.0,150.0,9.0,'1111122,1111122,1111122' 
NDBC,ioos:station:wmo:42019:1,2017-11-05T05:50:00Z,27.9070,-95.3530,5.0,8.0,160.0,9.0,'1111122,1111122,1111122' 
NDBC,ioos:station:wmo:42019:1,2017-11-05T06:50:00Z,27.9070,-95.3530,5.0,8.0,160.0,9.0,'1111122,1111122,1111122' 
NDBC,ioos:station:wmo:42019:1,2017-11-05T07:50:00Z,27.9070,-95.3530,5.0,8.0,160.0,9.0,'1111122,1111122,1111122' 
NDBC,ioos:station:wmo:42019:1,2017-11-05T08:50:00Z,27.9070,-95.3530,5.0,7.0,170.0,9.0,'1111122,1111122,1111122' 
NDBC,ioos:station:wmo:42019:1,2017-11-05T09:50:00Z,27.9070,-95.3530,5.0,8.0,180.0,9.0,'1111122,1111122,1111122' 
NDBC,ioos:station:wmo:42019:1,2017-11-05T10:50:00Z,27.9070,-95.3530,5.0,9.0,180.0,10.0,'1111122,1111122,1111122' 
NDBC,ioos:station:wmo:42019:1,2017-11-05T11:50:00Z,27.9070,-95.3530,5.0,8.0,180.0,9.0,'1111122,1111122,1111122' 
NDBC,ioos:station:wmo:42019:1,2017-11-05T12:50:00Z,27.9070,-95.3530,5.0,8.0,180.0,9.0,'1111122,1111122,1111122' 
NDBC,ioos:station:wmo:42019:1,2017-11-05T13:50:00Z,27.9070,-95.3530,5.0,8.0,170.0,9.0,'1111122,1111122,1111122' 
NDBC,ioos:station:wmo:42019:1,2017-11-05T14:50:00Z,27.9070,-95.3530,5.0,7.0,180.0,9.0,'1111122,1111122,1111122' 
NDBC,ioos:station:wmo:42019:1,2017-11-05T15:50:00Z,27.9070,-95.3530,5.0,8.0,170.0,9.0,'1111122,1111122,1111122' 
NDBC,ioos:station:wmo:42019:1,2017-11-05T16:50:00Z,27.9070,-95.3530,5.0,6.0,180.0,7.0,'1111122,1111122,1111122' 
NDBC,ioos:station:wmo:42019:1,2017-11-05T17:50:00Z,27.9070,-95.3530,5.0,7.0,180.0,8.0,'1111122,1111122,1111122' 
NDBC,ioos:station:wmo:42019:1,2017-11-05T18:50:00Z,27.9070,-95.3530,5.0,6.0,170.0,7.0,'1111122,1111122,1111122' 
NDBC,ioos:station:wmo:42019:1,2017-11-05T19:50:00Z,27.9070,-95.3530,5.0,6.0,180.0,7.0,'1111122,1111122,1111122' 
NDBC,ioos:station:wmo:42019:1,2017-11-05T20:50:00Z,27.9070,-95.3530,5.0,5.0,180.0,6.0,'1111122,1111122,1111122' 
NDBC,ioos:station:wmo:42019:1,2017-11-05T21:50:00Z,27.9070,-95.3530,5.0,6.0,160.0,7.0,'1111122,1111122,1111122' 
NDBC,ioos:station:wmo:42019:1,2017-11-05T22:50:00Z,27.9070,-95.3530,5.0,6.0,170.0,7.0,'1111122,1111122,1111122' 
NDBC,ioos:station:wmo:42019:1,2017-11-05T23:50:00Z,27.9070,-95.3530,5.0,5.0,160.0,6.0,'1111122,1111122,1111122' 
NDBC,ioos:station:wmo:42019:1,2017-11-06T00:50:00Z,27.9070,-95.3530,5.0,7.0,140.0,9.0,'1111122,1111122,1111122' 
NDBC,ioos:station:wmo:42019:1,2017-11-06T01:50:00Z,27.9070,-95.3530,5.0,7.0,150.0,9.0,'1111122,1111122,1111122' 
NDBC,ioos:station:wmo:42019:1,2017-11-06T02:50:00Z,27.9070,-95.3530,5.0,7.0,150.0,9.0,'1111122,1111122,1111122' 
NDBC,ioos:station:wmo:42019:1,2017-11-06T03:50:00Z,27.9070,-95.3530,5.0,9.0,150.0,10.0,'1111122,1111122,1111122' 
NDBC,ioos:station:wmo:42019:1,2017-11-06T04:50:00Z,27.9070,-95.3530,5.0,9.0,150.0,10.0,'1111122,1111122,1111122' 
NDBC,ioos:station:wmo:42019:1,2017-11-06T05:50:00Z,27.9070,-95.3530,5.0,9.0,160.0,11.0,'1111122,1111122,1111122' 
NDBC,ioos:station:wmo:42019:1,2017-11-06T06:50:00Z,27.9070,-95.3530,5.0,10.0,160.0,12.0,'1111122,1111122,1111122' 
NDBC,ioos:station:wmo:42019:1,2017-11-06T07:50:00Z,27.9070,-95.3530,5.0,10.0,170.0,12.0,'1111122,1111122,1111122' 
NDBC,ioos:station:wmo:42019:1,2017-11-06T08:50:00Z,27.9070,-95.3530,5.0,9.0,170.0,11.0,'1111122,1111122,1111122' 
NDBC,ioos:station:wmo:42019:1,2017-11-06T09:50:00Z,27.9070,-95.3530,5.0,8.0,170.0,10.0,'1111122,1111122,1111122' 
NDBC,ioos:station:wmo:42019:1,2017-11-06T10:50:00Z,27.9070,-95.3530,5.0,9.0,180.0,11.0,'1111122,1111122,1111122' 
NDBC,ioos:station:wmo:42019:1,2017-11-06T11:50:00Z,27.9070,-95.3530,5.0,8.0,180.0,10.0,'1111122,1111122,1111122' 
NDBC,ioos:station:wmo:42019:1,2017-11-06T12:50:00Z,27.9070,-95.3530,5.0,8.0,180.0,9.0,'1111122,1111122,1111122' 
NDBC,ioos:station:wmo:42019:1,2017-11-06T13:50:00Z,27.9070,-95.3530,5.0,8.0,180.0,10.0,'1111122,1111122,1111122' 
NDBC,ioos:station:wmo:42019:1,2017-11-06T14:50:00Z,27.9070,-95.3530,5.0,8.0,190.0,9.0,'1111122,1111122,1111122' 
NDBC,ioos:station:wmo:42019:1,2017-11-06T15:50:00Z,27.9070,-95.3530,5.0,7.0,180.0,8.0,'1111122,1111122,1111122' 
NDBC,ioos:station:wmo:42019:1,2017-11-06T16:50:00Z,27.9070,-95.3530,5.0,6.0,180.0,7.0,'1111122,1111122,1111122' 
NDBC,ioos:station:wmo:42019:1,2017-11-06T17:50:00Z,27.9070,-95.3530,5.0,6.0,190.0,7.0,'1111122,1111122,1111122' 
NDBC,ioos:station:wmo:42019:1,2017-11-06T18:50:00Z,27.9070,-95.3530,5.0,6.0,180.0,7.0,'1111122,1111122,1111122' 
NDBC,ioos:station:wmo:42019:1,2017-11-06T19:50:00Z,27.9070,-95.3530,5.0,5.0,180.0,7.0,'1111122,1111122,1111122' 
NDBC,ioos:station:wmo:42019:1,2017-11-06T20:50:00Z,27.9070,-95.3530,5.0,5.0,180.0,6.0,'1111122,1111122,1111122' 
NDBC,ioos:station:wmo:42019:1,2017-11-06T21:50:00Z,27.9070,-95.3530,5.0,4.0,170.0,5.0,'1111122,1111122,1111122' 
NDBC,ioos:station:wmo:42019:1,2017-11-06T22:50:00Z,27.9070,-95.3530,5.0,5.0,160.0,6.0,'1111122,1111122,1111122' 
NDBC,ioos:station:wmo:42019:1,2017-11-06T23:50:00Z,27.9070,-95.3530,5.0,6.0,150.0,7.0,'1111122,1111122,1111122' 
NDBC,ioos:station:wmo:42019:1,2017-11-07T00:50:00Z,27.9070,-95.3530,5.0,5.0,150.0,6.0,'1111122,1111122,1111122' 
NDBC,ioos:station:wmo:42019:1,2017-11-07T01:50:00Z,27.9070,-95.3530,5.0,6.0,150.0,7.0,'1111122,1111122,1111122' 
NDBC,ioos:station:wmo:42019:1,2017-11-07T02:50:00Z,27.9070,-95.3530,5.0,6.0,150.0,8.0,'1111122,1111122,1111122' 
NDBC,ioos:station:wmo:42019:1,2017-11-07T03:50:00Z,27.9070,-95.3530,5.0,7.0,140.0,9.0,'1111122,1111122,1111122' 
NDBC,ioos:station:wmo:42019:1,2017-11-07T04:50:00Z,27.9070,-95.3530,5.0,8.0,150.0,10.0,'1111122,1111122,1111122' 
NDBC,ioos:station:wmo:42019:1,2017-11-07T05:50:00Z,27.9070,-95.3530,5.0,8.0,150.0,9.0,'1111122,1111122,1111122' 
NDBC,ioos:station:wmo:42019:1,2017-11-07T06:50:00Z,27.9070,-95.3530,5.0,8.0,160.0,9.0,'1111122,1111122,1111122' 
NDBC,ioos:station:wmo:42019:1,2017-11-07T07:50:00Z,27.9070,-95.3530,5.0,8.0,150.0,9.0,'1111122,1111122,1111122' 
NDBC,ioos:station:wmo:42019:1,2017-11-07T08:50:00Z,27.9070,-95.3530,5.0,8.0,150.0,9.0,'1111122,1111122,1111122' 
NDBC,ioos:station:wmo:42019:1,2017-11-07T09:50:00Z,27.9070,-95.3530,5.0,8.0,170.0,10.0,'1111122,1111122,1111122' 
NDBC,ioos:station:wmo:42019:1,2017-11-07T10:50:00Z,27.9070,-95.3530,5.0,8.0,150.0,9.0,'1111122,1111122,1111122' 
NDBC,ioos:station:wmo:42019:1,2017-11-07T11:50:00Z,27.9070,-95.3530,5.0,6.0,160.0,8.0,'1111122,1111122,1111122' 
NDBC,ioos:station:wmo:42019:1,2017-11-07T12:50:00Z,27.9070,-95.3530,5.0,7.0,170.0,8.0,'1111122,1111122,1111122' 
NDBC,ioos:station:wmo:42019:1,2017-11-07T13:50:00Z,27.9070,-95.3530,5.0,7.0,150.0,8.0,'1111122,1111122,1111122' 
NDBC,ioos:station:wmo:42019:1,2017-11-07T14:50:00Z,27.9070,-95.3530,5.0,6.0,150.0,7.0,'1111122,1111122,1111122' 
NDBC,ioos:station:wmo:42019:1,2017-11-07T15:50:00Z,27.9070,-95.3530,5.0,5.0,170.0,6.0,'1111122,1111122,1111122' 
NDBC,ioos:station:wmo:42019:1,2017-11-07T16:50:00Z,27.9070,-95.3530,5.0,5.0,160.0,6.0,'1111122,1111122,1111122' 
NDBC,ioos:station:wmo:42019:1,2017-11-07T18:50:00Z,27.9070,-95.3530,5.0,2.0,150.0,3.0,'1111122,1111122,1111122' 
NDBC,ioos:station:wmo:42019:1,2017-11-07T19:50:00Z,27.9070,-95.3530,5.0,3.0,150.0,4.0,'1111122,1111122,1111122' 
NDBC,ioos:station:wmo:42019:1,2017-11-07T20:50:00Z,27.9070,-95.3530,5.0,3.0,160.0,3.0,'1111122,1111122,1111122' 
NDBC,ioos:station:wmo:42019:1,2017-11-07T21:50:00Z,27.9070,-95.3530,5.0,3.0,140.0,4.0,'1111122,1111122,1111122' 
NDBC,ioos:station:wmo:42019:1,2017-11-07T22:50:00Z,27.9070,-95.3530,5.0,4.0,120.0,5.0,'1111122,1111122,1111122' 
NDBC,ioos:station:wmo:42019:1,2017-11-07T23:50:00Z,27.9070,-95.3530,5.0,4.0,120.0,4.0,'1111122,1111122,1111122' 
NDBC,ioos:station:wmo:42019:1,2017-11-08T00:50:00Z,27.9070,-95.3530,5.0,4.0,120.0,5.0,'1111122,1111122,1111122' 
NDBC,ioos:station:wmo:42019:1,2017-11-08T01:50:00Z,27.9070,-95.3530,5.0,5.0,120.0,5.0,'1111122,1111122,1111122' 
NDBC,ioos:station:wmo:42019:1,2017-11-08T03:50:00Z,27.9070,-95.3530,5.0,3.0,140.0,4.0,'1111122,1111122,1111122' 
NDBC,ioos:station:wmo:42019:1,2017-11-08T04:50:00Z,27.9070,-95.3530,5.0,3.0,150.0,4.0,'1111122,1111122,1111122' 
NDBC,ioos:station:wmo:42019:1,2017-11-08T05:50:00Z,27.9070,-95.3530,5.0,3.0,150.0,3.0,'1111122,1111122,1111122' 
NDBC,ioos:station:wmo:42019:1,2017-11-08T06:50:00Z,27.9070,-95.3530,5.0,3.0,160.0,3.0,'1111122,1111122,1111122' 
NDBC,ioos:station:wmo:42019:1,2017-11-08T07:50:00Z,27.9070,-95.3530,5.0,3.0,150.0,3.0,'1111122,1111122,1111122' 
NDBC,ioos:station:wmo:42019:1,2017-11-08T08:50:00Z,27.9070,-95.3530,5.0,2.0,170.0,2.0,'1111122,1111122,1111122' 
NDBC,ioos:station:wmo:42019:1,2017-11-08T10:50:00Z,27.9070,-95.3530,5.0,2.0,320.0,3.0,'1111122,1111122,1111122' 
NDBC,ioos:station:wmo:42019:1,2017-11-08T11:50:00Z,27.9070,-95.3530,5.0,8.0,360.0,9.0,'1111122,1111122,1111122' 
NDBC,ioos:station:wmo:42019:1,2017-11-08T12:50:00Z,27.9070,-95.3530,5.0,8.0,10.0,9.0,'1111122,1111122,1111122' 
NDBC,ioos:station:wmo:42019:1,2017-11-08T13:50:00Z,27.9070,-95.3530,5.0,8.0,10.0,10.0,'1111122,1111122,1111122' 
NDBC,ioos:station:wmo:42019:1,2017-11-08T14:50:00Z,27.9070,-95.3530,5.0,8.0,20.0,9.0,'1111122,1111122,1111122' 
NDBC,ioos:station:wmo:42019:1,2017-11-08T15:50:00Z,27.9070,-95.3530,5.0,8.0,20.0,9.0,'1111122,1111122,1111122' 
NDBC,ioos:station:wmo:42019:1,2017-11-08T16:50:00Z,27.9070,-95.3530,5.0,8.0,20.0,9.0,'1111122,1111122,1111122' 
NDBC,ioos:station:wmo:42019:1,2017-11-08T17:50:00Z,27.9070,-95.3530,5.0,9.0,20.0,10.0,'1111122,1111122,1111122' 
NDBC,ioos:station:wmo:42019:1,2017-11-08T18:50:00Z,27.9070,-95.3530,5.0,9.0,20.0,11.0,'1111122,1111122,1111122' 
NDBC,ioos:station:wmo:42019:1,2017-11-08T19:50:00Z,27.9070,-95.3530,5.0,9.0,10.0,10.0,'1111122,1111122,1111122' 
NDBC,ioos:station:wmo:42019:1,2017-11-08T20:50:00Z,27.9070,-95.3530,5.0,10.0,10.0,12.0,'1111122,1111122,1111122' 
NDBC,ioos:station:wmo:42019:1,2017-11-08T21:50:00Z,27.9070,-95.3530,5.0,10.0,10.0,12.0,'1111122,1111122,1111122' 
NDBC,ioos:station:wmo:42019:1,2017-11-08T22:50:00Z,27.9070,-95.3530,5.0,10.0,10.0,12.0,'1111122,1111122,1111122' 
NDBC,ioos:station:wmo:42019:1,2017-11-08T23:50:00Z,27.9070,-95.3530,5.0,10.0,10.0,12.0,'1111122,1111122,1111122' 
NDBC,ioos:station:wmo:42019:1,2017-11-09T00:50:00Z,27.9070,-95.3530,5.0,10.0,10.0,13.0,'1111122,1111122,1111122' 
NDBC,ioos:station:wmo:42019:1,2017-11-09T01:50:00Z,27.9070,-95.3530,5.0,11.0,360.0,13.0,'1111122,1111122,1111122' 
NDBC,ioos:station:wmo:42019:1,2017-11-09T02:50:00Z,27.9070,-95.3530,5.0,10.0,10.0,13.0,'1111122,1111122,1111122' 
NDBC,ioos:station:wmo:42019:1,2017-11-09T03:50:00Z,27.9070,-95.3530,5.0,10.0,360.0,12.0,'1111122,1111122,1111122' 
NDBC,ioos:station:wmo:42019:1,2017-11-09T04:50:00Z,27.9070,-95.3530,5.0,10.0,10.0,11.0,'1111122,1111122,1111122' 
NDBC,ioos:station:wmo:42019:1,2017-11-09T05:50:00Z,27.9070,-95.3530,5.0,10.0,10.0,11.0,'1111122,1111122,1111122' 
NDBC,ioos:station:wmo:42019:1,2017-11-09T06:50:00Z,27.9070,-95.3530,5.0,10.0,10.0,12.0,'1111122,1111122,1111122' 
NDBC,ioos:station:wmo:42019:1,2017-11-09T07:50:00Z,27.9070,-95.3530,5.0,9.0,10.0,10.0,'1111122,1111122,1111122' 
NDBC,ioos:station:wmo:42019:1,2017-11-09T08:50:00Z,27.9070,-95.3530,5.0,10.0,20.0,12.0,'1111122,1111122,1111122' 
NDBC,ioos:station:wmo:42019:1,2017-11-09T09:50:00Z,27.9070,-95.3530,5.0,10.0,10.0,12.0,'1111122,1111122,1111122' 
NDBC,ioos:station:wmo:42019:1,2017-11-09T10:50:00Z,27.9070,-95.3530,5.0,9.0,10.0,10.0,'1111122,1111122,1111122' 
NDBC,ioos:station:wmo:42019:1,2017-11-09T11:50:00Z,27.9070,-95.3530,5.0,11.0,360.0,13.0,'1111122,1111122,1111122' 
NDBC,ioos:station:wmo:42019:1,2017-11-09T12:50:00Z,27.9070,-95.3530,5.0,11.0,20.0,13.0,'1111122,1111122,1111122' 
NDBC,ioos:station:wmo:42019:1,2017-11-09T13:50:00Z,27.9070,-95.3530,5.0,11.0,20.0,13.0,'1111122,1111122,1111122' 
NDBC,ioos:station:wmo:42019:1,2017-11-09T14:50:00Z,27.9070,-95.3530,5.0,10.0,20.0,13.0,'1111122,1111122,1111122' 
NDBC,ioos:station:wmo:42019:1,2017-11-09T15:50:00Z,27.9070,-95.3530,5.0,12.0,20.0,14.0,'1111122,1111122,1111122' 
NDBC,ioos:station:wmo:42019:1,2017-11-09T16:50:00Z,27.9070,-95.3530,5.0,11.0,20.0,13.0,'1111122,1111122,1111122' 
NDBC,ioos:station:wmo:42019:1,2017-11-09T17:50:00Z,27.9070,-95.3530,5.0,10.0,20.0,12.0,'1111122,1111122,1111122' 
NDBC,ioos:station:wmo:42019:1,2017-11-09T18:50:00Z,27.9070,-95.3530,5.0,10.0,20.0,12.0,'1111122,1111122,1111122' 
NDBC,ioos:station:wmo:42019:1,2017-11-09T19:50:00Z,27.9070,-95.3530,5.0,9.0,20.0,11.0,'1111122,1111122,1111122' 
NDBC,ioos:station:wmo:42019:1,2017-11-09T20:50:00Z,27.9070,-95.3530,5.0,9.0,30.0,11.0,'1111122,1111122,1111122' 